Hourly Weather Holubkove

Today, 16 April, Friday

Time Temperature Precipitation Wind Pressure Humidity
00:00 +6°C° 0 mm 5 mps 749 mmHg 87%
01:00 +6°C° 0 mm 5 mps 749 mmHg 87%
02:00 +6°C° 0 mm 5 mps 750 mmHg 86%
03:00 +5°C° 0 mm 5 mps 750 mmHg 86%
04:00 +5°C° 0 mm 5 mps 750 mmHg 86%
05:00 +5°C° 0 mm 5 mps 750 mmHg 86%
06:00 +6°C° 0 mm 5 mps 750 mmHg 84%
07:00 +6°C° 0 mm 5 mps 750 mmHg 82%
08:00 +7°C° 0 mm 5 mps 751 mmHg 81%
09:00 +8°C° 0 mm 5 mps 751 mmHg 72%
10:00 +10°C° 0 mm 5 mps 751 mmHg 63%
11:00 +12°C° 0 mm 5 mps 751 mmHg 54%
12:00 +12°C° 0.1 mm 5 mps 751 mmHg 55%
13:00 +12°C° 0.1 mm 5 mps 751 mmHg 56%
14:00 +12°C° 0.1 mm 5 mps 751 mmHg 57%
15:00 +10°C° 0.2 mm 6 mps 751 mmHg 59%
16:00 +10°C° 0.2 mm 6 mps 751 mmHg 62%
17:00 +10°C° 0.2 mm 6 mps 751 mmHg 64%
18:00 +8°C° 0.3 mm 5 mps 751 mmHg 71%
19:00 +7°C° 0.3 mm 4 mps 751 mmHg 77%
20:00 +6°C° 0.3 mm 4 mps 751 mmHg 84%
21:00 +5°C° 0.1 mm 3 mps 752 mmHg 87%
22:00 +5°C° 0.1 mm 3 mps 752 mmHg 89%
23:00 +4°C° 0.1 mm 3 mps 752 mmHg 92%

Tomorrow, 17 April, Saturday

Time Temperature Precipitation Wind Pressure Humidity
00:00 +4°C° 0 mm 3 mps 752 mmHg 90%
01:00 +4°C° 0 mm 2 mps 752 mmHg 87%
02:00 +4°C° 0 mm 2 mps 752 mmHg 85%
03:00 +3°C° 0 mm 3 mps 753 mmHg 87%
04:00 +3°C° 0 mm 3 mps 753 mmHg 88%
05:00 +2°C° 0 mm 3 mps 753 mmHg 90%
06:00 +4°C° 0 mm 4 mps 753 mmHg 83%
07:00 +5°C° 0 mm 4 mps 753 mmHg 76%
08:00 +7°C° 0 mm 5 mps 754 mmHg 69%
09:00 +8°C° 0 mm 5 mps 754 mmHg 65%
10:00 +9°C° 0 mm 6 mps 754 mmHg 61%
11:00 +10°C° 0 mm 6 mps 754 mmHg 56%
12:00 +10°C° 0 mm 5 mps 754 mmHg 56%
13:00 +10°C° 0 mm 5 mps 754 mmHg 55%
14:00 +11°C° 0 mm 4 mps 754 mmHg 54%
15:00 +11°C° 0 mm 3 mps 754 mmHg 55%
16:00 +11°C° 0 mm 3 mps 754 mmHg 57%
17:00 +12°C° 0 mm 2 mps 754 mmHg 58%
18:00 +12°C° 0 mm 2 mps 754 mmHg 61%
19:00 +10°C° 0 mm 2 mps 754 mmHg 64%
20:00 +9°C° 0 mm 2 mps 754 mmHg 67%
21:00 +9°C° 0 mm 2 mps 754 mmHg 68%
22:00 +8°C° 0 mm 2 mps 754 mmHg 70%
23:00 +8°C° 0 mm 3 mps 754 mmHg 71%

Day after tomorrow, 18 April, Sunday

Time Temperature Precipitation Wind Pressure Humidity
00:00 +7°C° 0 mm 3 mps 754 mmHg 71%
01:00 +6°C° 0 mm 2 mps 754 mmHg 71%
02:00 +6°C° 0 mm 2 mps 754 mmHg 72%
03:00 +6°C° 0 mm 2 mps 754 mmHg 72%
04:00 +5°C° 0 mm 2 mps 753 mmHg 72%
05:00 +5°C° 0 mm 2 mps 753 mmHg 72%
06:00 +7°C° 0 mm 2 mps 753 mmHg 66%
07:00 +9°C° 0 mm 3 mps 753 mmHg 60%
08:00 +10°C° 0 mm 3 mps 753 mmHg 54%
09:00 +12°C° 0 mm 3 mps 753 mmHg 49%
10:00 +13°C° 0 mm 3 mps 753 mmHg 44%
11:00 +14°C° 0 mm 3 mps 752 mmHg 39%
12:00 +16°C° 0 mm 3 mps 752 mmHg 39%
13:00 +16°C° 0 mm 3 mps 752 mmHg 39%
14:00 +16°C° 0 mm 3 mps 752 mmHg 39%
15:00 +16°C° 0 mm 3 mps 752 mmHg 41%
16:00 +16°C° 0 mm 3 mps 752 mmHg 44%
17:00 +14°C° 0 mm 3 mps 752 mmHg 46%
18:00 +13°C° 0 mm 3 mps 752 mmHg 53%
19:00 +11°C° 0 mm 3 mps 752 mmHg 60%
20:00 +10°C° 0 mm 2 mps 752 mmHg 67%
21:00 +10°C° 0 mm 2 mps 752 mmHg 70%
22:00 +10°C° 0 mm 2 mps 751 mmHg 72%
23:00 +9°C° 0 mm 2 mps 751 mmHg 75%

19 April, Monday

Time Temperature Precipitation Wind Pressure Humidity
00:00 +9°C° 0 mm 2 mps 751 mmHg 76%
01:00 +9°C° 0 mm 2 mps 751 mmHg 78%
02:00 +9°C° 0 mm 2 mps 750 mmHg 79%
03:00 +9°C° 0.2 mm 2 mps 750 mmHg 83%
04:00 +9°C° 0.2 mm 2 mps 750 mmHg 86%
05:00 +9°C° 0.2 mm 2 mps 750 mmHg 89%
06:00 +9°C° 0.2 mm 2 mps 750 mmHg 90%
07:00 +9°C° 0.2 mm 2 mps 749 mmHg 90%
08:00 +9°C° 0.2 mm 2 mps 749 mmHg 91%
09:00 +10°C° 0 mm 2 mps 749 mmHg 90%
10:00 +10°C° 0 mm 2 mps 749 mmHg 88%
11:00 +12°C° 0 mm 1 mps 749 mmHg 87%
12:00 +12°C° 0 mm 1 mps 748 mmHg 87%
13:00 +12°C° 0 mm 2 mps 748 mmHg 87%
14:00 +12°C° 0 mm 2 mps 747 mmHg 87%
15:00 +12°C° 0 mm 2 mps 747 mmHg 88%
16:00 +12°C° 0 mm 2 mps 746 mmHg 89%
17:00 +12°C° 0 mm 2 mps 746 mmHg 90%
18:00 +12°C° 0 mm 2 mps 745 mmHg 92%
19:00 +11°C° 0 mm 3 mps 745 mmHg 93%
20:00 +11°C° 0 mm 3 mps 744 mmHg 94%
21:00 +11°C° 1.9 mm 3 mps 744 mmHg 95%
22:00 +11°C° 1.9 mm 3 mps 743 mmHg 97%
23:00 +11°C° 1.9 mm 3 mps 742 mmHg 98%

20 April, Tuesday

Time Temperature Precipitation Wind Pressure Humidity
00:00 +11°C° 0.4 mm 3 mps 741 mmHg 98%
01:00 +11°C° 0.4 mm 3 mps 740 mmHg 98%
02:00 +12°C° 0.4 mm 4 mps 739 mmHg 98%
03:00 +12°C° 1.3 mm 3 mps 739 mmHg 98%
04:00 +12°C° 1.3 mm 3 mps 738 mmHg 98%
05:00 +12°C° 1.3 mm 3 mps 738 mmHg 98%
06:00 +12°C° 0.1 mm 4 mps 737 mmHg 92%
07:00 +13°C° 0.1 mm 5 mps 737 mmHg 86%
08:00 +14°C° 0.1 mm 6 mps 737 mmHg 80%
09:00 +14°C° 0.1 mm 7 mps 737 mmHg 72%
10:00 +15°C° 0.1 mm 8 mps 737 mmHg 65%
11:00 +15°C° 0.1 mm 9 mps 737 mmHg 57%
12:00 +13°C° 0.1 mm 10 mps 737 mmHg 61%
13:00 +12°C° 0.1 mm 10 mps 737 mmHg 64%
14:00 +11°C° 0.1 mm 11 mps 737 mmHg 67%
15:00 +9°C° 0.2 mm 10 mps 736 mmHg 74%
16:00 +8°C° 0.2 mm 10 mps 736 mmHg 81%
17:00 +7°C° 0.2 mm 9 mps 736 mmHg 88%
18:00 +7°C° 0.1 mm 9 mps 738 mmHg 87%
19:00 +7°C° 0.1 mm 9 mps 739 mmHg 86%
20:00 +7°C° 0.1 mm 9 mps 741 mmHg 85%
21:00 +7°C° 0 mm 8 mps 742 mmHg 83%
22:00 +7°C° 0 mm 8 mps 744 mmHg 82%
23:00 +7°C° 0 mm 8 mps 745 mmHg 81%

21 April, Wednesday

Time Temperature Precipitation Wind Pressure Humidity
00:00 +6°C° 0 mm 7 mps 746 mmHg 82%
01:00 +5°C° 0 mm 7 mps 747 mmHg 83%
02:00 +5°C° 0 mm 6 mps 747 mmHg 84%
03:00 +5°C° 0 mm 5 mps 748 mmHg 85%
04:00 +5°C° 0 mm 5 mps 748 mmHg 86%
05:00 +5°C° 0 mm 4 mps 749 mmHg 86%
06:00 +7°C° 0 mm 4 mps 749 mmHg 79%
07:00 +8°C° 0 mm 5 mps 750 mmHg 71%
08:00 +10°C° 0 mm 5 mps 750 mmHg 63%
09:00 +12°C° 0 mm 5 mps 751 mmHg 58%
10:00 +13°C° 0 mm 5 mps 751 mmHg 53%
11:00 +15°C° 0 mm 5 mps 751 mmHg 48%
12:00 +14°C° 0.2 mm 5 mps 751 mmHg 52%
13:00 +14°C° 0.2 mm 6 mps 751 mmHg 56%
14:00 +14°C° 0.2 mm 6 mps 751 mmHg 60%
15:00 +13°C° 0.1 mm 5 mps 752 mmHg 63%
16:00 +13°C° 0.1 mm 5 mps 752 mmHg 65%
17:00 +13°C° 0.1 mm 4 mps 752 mmHg 67%
18:00 +12°C° 0 mm 4 mps 752 mmHg 72%
19:00 +11°C° 0 mm 4 mps 753 mmHg 77%
20:00 +10°C° 0 mm 3 mps 753 mmHg 83%
21:00 +9°C° 0 mm 3 mps 754 mmHg 85%
22:00 +9°C° 0 mm 3 mps 754 mmHg 88%
23:00 +8°C° 0 mm 3 mps 754 mmHg 90%
Show more